                ,  1.160,  1.308,  1.456,  1.604,  1.751,  1.899,  2.047,  2.194,  2.342,  2.490,  2.638,  2.785,  2.933,  3.081,  3.229,  3.376,  3.524,  3.672,  3.819,  3.967,  4.115,  4.263,  4.410,  4.558,  4.706,  4.853,  5.001,  5.149,  5.297,  5.444
2007/07/23 00:00,   -2.0,   -1.6,   -1.5,    4.3,    3.1,    0.7,    2.0,    6.5,    3.8,    1.8,    6.2,    6.1,    4.3,    3.1,    2.5,    2.8,    3.1,    2.6,    5.4,    7.6,    5.0,    7.8,    2.8,    2.3,    1.3,    2.4,    4.1,    4.4,    3.3,    3.4
2007/07/23 00:10,   -2.4,   -1.9,   -1.4,   -1.4,   -0.5,    0.2,    0.2,    0.7,    1.7,    2.0,    3.0,    3.1,    3.3,    3.7,    4.3,    4.2,    3.4,    3.8,    3.4,    3.0,    3.6,    4.8,    4.9,    4.6,    5.6,    4.0,    3.2,    3.0,    3.4,    3.7
2007/07/23 00:20,  999.0,   -1.5,   -2.8,    0.6,   -0.2,   -0.2,   -1.6,   -0.1,    0.3,    0.9,    1.1,    2.0,    0.2,    0.4,    0.6,   -1.5,   -0.4,    1.0,    1.0,    0.0,   -0.6,    2.4,    2.4,    2.3,    2.0,    2.9,    4.0,    4.3,    4.4,    4.3
2007/07/23 00:30,   -1.8,   -2.9,   -4.0,   -3.2,   -2.8,   -2.0,   -1.5,   -1.4,   -1.9,   -1.7,   -3.0,   -2.3,   -3.5,   -2.9,   -2.6,   -3.9,    1.8,    0.9,   -4.2,   -0.4,   -2.2,    0.1,  999.0,    2.2,    1.3,    1.7,    2.6,    3.3,    3.1,    3.8
2007/07/23 00:40,   -2.9,   -2.0,   -1.8,    0.1,   -0.7,   -1.4,   -1.1,    0.3,   -0.4,    4.2,    4.0,    1.5,    1.2,    2.1,    3.4,    3.8,    3.8,    1.8,    2.4,    3.7,    4.3,    2.9,    3.8,    1.2,    4.4,    5.2,    4.6,    5.1,    4.6,    5.3
2007/07/23 00:50,   -1.6,   -1.6,   -0.7,   -1.6,   -1.6,   -1.7,   -1.4,   -1.4,   -1.4,    2.6,    1.5,    4.8,    2.2,    3.9,    4.5,    4.8,    5.0,    4.2,    2.5,    2.2,    2.6,    2.9,    2.2,    0.5,    3.1,    3.7,    4.2,    4.5,    3.5,    2.9
2007/07/23 01:00,   -1.8,   -0.8,   -1.4,   -3.4,   -3.1,   -3.4,   -3.3,   -2.1,   -0.1,    2.3,    3.0,    4.1,    4.7,    6.2,    7.1,    7.3,    9.1,    9.7,    9.1,    7.4,    6.3,    5.1,    3.8,    3.5,    4.5,    3.4,    2.6,  999.0,  999.0,  999.0
2007/07/23 01:10,   -2.6,   -1.7,   -1.7,   -1.6,   -2.6,   -2.4,   -1.8,   -1.0,   -1.0,   -1.9,   -2.4,   -1.9,   -1.5,   -1.1,   -0.1,   -0.8,   -0.8,   -0.3,   -1.5,   -2.0,   -1.7,   -1.2,    1.0,    2.1,    2.1,    1.5,    1.1,    2.6,    2.2,    2.7
2007/07/23 01:20,   -2.4,   -1.5,   -1.2,   -1.0,   -1.1,   -2.1,   -2.8,   -3.6,   -3.0,   -2.2,   -2.5,   -2.4,   -2.7,   -3.0,   -3.3,   -4.2,   -4.9,   -5.2,   -4.2,   -3.1,   -0.0,   -0.6,    0.8,    2.6,    1.6,    1.7,    1.0,    0.7,    2.1,    2.4
2007/07/23 01:30,   -1.5,   -0.8,   -1.3,   -0.2,   -0.1,    0.4,    0.4,   -0.2,   -1.7,   -2.0,   -2.1,   -2.1,   -2.0,   -2.2,   -3.1,   -4.0,   -2.9,   -4.2,   -4.2,   -3.7,   -2.4,   -2.5,   -3.6,   -1.0,   -0.4,   -1.7,   -2.1,    0.9,    4.2,    1.5
2007/07/23 01:40,   -3.0,   -3.0,   -1.0,    0.2,    1.0,    0.6,    0.7,    1.2,    1.0,    0.5,   -0.4,   -1.2,   -1.4,   -1.5,   -2.2,   -2.9,   -3.1,   -4.2,   -4.6,   -4.4,   -2.7,   -1.7,   -0.5,   -0.1,    0.1,   -0.1,   -1.5,   -0.4,   -0.8,    0.5
2007/07/23 01:50,   -3.0,   -2.0,    0.2,    0.2,    0.8,    0.9,    1.0,    0.3,    0.5,    0.1,   -0.1,   -0.1,   -0.4,   -0.5,   -1.2,   -1.1,   -0.5,   -0.8,   -0.5,    0.2,    0.3,    0.8,    1.8,    1.4,    0.8,   -1.3,    1.6,    0.5,    0.8,    0.4
2007/07/23 02:00,   -2.6,   -1.5,   -0.6,    0.9,    2.0,    1.7,    1.4,    1.9,    1.8,    2.1,    1.1,    1.3,    0.8,    0.2,   -0.1,    1.7,    4.1,    3.9,    4.4,    5.0,    2.6,    2.7,    2.6,    1.4,   -0.5,   -3.7,   -5.0,   -4.9,   -3.5,   -3.3
2007/07/23 02:10,   -2.0,   -1.4,   -0.8,   -0.6,   -0.0,   -0.0,   -0.0,   -0.0,    0.3,    0.1,    0.5,    2.6,    3.2,    3.8,    3.6,    2.8,    1.3,   -0.7,   -2.8,   -3.8,   -3.1,    1.3,    2.4,    4.7,    3.3,    0.8,   -0.5,   -1.1,   -1.2,   -1.9
2007/07/23 02:20,   -2.3,   -0.9,   -1.1,   -1.5,   -0.2,   -0.4,   -0.2,   -0.6,   -0.7,   -0.7,   -0.3,   -0.1,   -0.8,   -1.1,   -2.3,   -3.3,   -3.3,   -4.3,   -4.3,   -4.4,   -3.9,    0.6,  999.0,  999.0,    4.1,    2.4,    1.1,   -0.6,   -1.4,   -2.0
2007/07/23 02:30,   -2.5,   -2.1,   -2.2,   -2.2,   -2.1,   -1.3,   -1.7,   -1.7,   -2.1,   -1.6,   -2.9,   -3.2,   -2.4,   -2.5,   -3.6,   -3.4,   -3.5,   -3.9,   -5.4,   -7.4,   -8.1,   -4.2,  999.0,  999.0,    3.0,    1.6,    1.0,    0.2,    0.8,    0.9
2007/07/23 02:40,   -3.3,   -3.8,   -3.5,   -4.3,   -4.1,   -3.6,   -2.8,   -3.1,   -4.6,   -3.6,   -5.2,   -5.3,   -5.6,   -5.4,   -6.6,   -6.2,   -6.8,   -7.2,   -6.4,   -6.7,   -5.4,   -0.0,    2.0,    2.2,    2.5,    2.3,    1.8,    2.8,    3.3,    2.4
2007/07/23 02:50,   -3.4,   -3.5,   -3.5,   -2.9,   -1.3,   -0.1,   -0.4,   -0.2,   -0.5,    0.2,   -0.2,   -5.6,   -7.8,  -14.0,  -14.1,   -8.5,    2.1,    0.1,   -0.4,   -0.3,   -3.0,   -1.5,    3.3,  999.0,    3.7,    2.9,    3.1,    2.4,    1.5,    1.5
2007/07/23 03:00,   -3.9,   -3.3,   -0.5,   -0.3,   -0.5,   -0.2,   -0.3,    0.3,   -0.3,   -0.3,    0.2,  -12.5,  -11.5,  -11.8,  -11.5,   -9.3,   -5.1,   -1.2,   -5.6,   -3.8,   -4.5,  999.0,  999.0,  999.0,  999.0,    3.5,    3.8,    3.3,    3.0,    2.8
2007/07/23 03:10,   -3.2,   -2.3,   -2.0,   -1.8,   -1.4,   -0.6,   -0.4,   -0.1,   -0.1,   -0.6,   -1.4,   -0.5,   -5.3,   -5.5,   -4.1,   -2.2,   -2.2,   -1.9,  -13.6,  -11.3,  -11.3,   -9.3,  999.0,   -1.0,   -1.7,    1.8,    1.4,    1.6,    1.6,    1.8
2007/07/23 03:20,   -3.4,   -2.5,   -1.6,   -0.6,    0.2,    1.1,    0.2,   -0.3,    0.3,   -1.2,   -0.8,    0.2,    0.2,    0.3,   -0.7,   -0.5,   -0.3,    1.2,    1.1,   -3.4,  999.0,   -3.2,   -3.3,   -1.8,    2.1,   -0.7,    0.0,    0.3,    1.2,    2.8
2007/07/23 03:30,   -1.0,    0.9,    2.5,    4.7,    5.2,    5.2,    5.1,    4.8,    4.0,    2.2,    1.4,    1.2,    1.4,    0.6,   -0.5,   -0.3,   -0.5,   -1.6,    1.2,    0.2,  999.0,    1.6,   -3.6,    1.7,    2.0,  999.0,  999.0,  999.0,  999.0,  999.0
2007/07/23 03:40,   -2.3,   -1.6,   -0.2,    0.4,    0.4,    3.1,    3.1,    2.0,    1.2,   -1.8,   -2.8,   -3.0,   -1.3,   -1.1,   -0.6,   -1.3,    1.2,    2.8,    4.1,    4.9,    3.8,    1.3,   -0.3,    1.0,   -1.3,  999.0,  999.0,  999.0,  999.0,  999.0
2007/07/23 03:50,   -2.2,   -0.8,   -0.1,    0.2,    0.6,    0.4,   -0.0,    1.7,    1.5,    0.7,    0.5,    0.3,    0.2,    0.1,    0.3,   -0.3,   -0.7,   -2.5,   -1.2,   -3.7,    2.0,    1.5,    1.4,    2.5,    2.2,  999.0,  999.0,  999.0,  999.0,  999.0
2007/07/23 04:00,   -1.7,   -0.3,    0.7,    1.3,    1.7,    2.8,    4.5,    4.7,    2.4,    2.9,    3.3,    2.4,    2.5,    1.7,    1.2,   -0.2,    1.1,    3.4,    5.0,  999.0,    0.8,    0.3,    2.8,    2.3,    2.8,    4.2,    3.6,  999.0,  999.0,  999.0
2007/07/23 04:10,   -1.5,    0.4,    0.4,   -0.7,    0.9,    1.5,    3.5,    3.5,    1.8,    2.7,    3.1,    2.9,   -0.0,    2.2,    5.4,   -1.0,    1.1,    1.0,   -0.3,    0.4,    0.8,    0.9,    2.8,    2.5,    2.8,    3.3,    3.1,    3.6,    3.5,    3.4
2007/07/23 04:20,   -0.4,    1.5,   -0.7,   -0.5,    0.9,    0.9,    2.5,    3.2,    3.4,    4.1,    3.5,    3.7,    3.6,    3.1,    1.0,   -1.1,   -1.0,   -0.6,   -1.9,   -1.1,   -1.0,    0.2,    0.8,    2.1,    2.9,    2.4,    1.9,    3.3,    4.1,    4.2
2007/07/23 04:30,   -1.5,    0.4,    0.8,    1.0,    0.6,    0.9,    2.8,    3.3,    4.8,    3.6,    2.6,    2.1,    2.2,    3.3,    2.9,    4.0,    0.4,    1.3,    1.0,    0.2,    0.9,    0.5,  999.0,  999.0,    2.7,    3.3,    2.8,    2.5,    2.9,    2.9
2007/07/23 04:40,   -2.6,   -1.5,   -0.8,    0.5,    0.2,    0.5,   -0.2,   -0.1,   -0.0,    0.2,    0.0,    1.1,    0.9,    0.7,    0.0,   -0.5,   -0.7,    0.4,    2.0,    1.6,    1.9,    1.1,    1.6,    3.8,    4.8,    2.8,    1.5,    1.7,    1.3,    1.1
2007/07/23 04:50,   -2.5,   -1.8,   -1.0,   -1.3,   -0.2,    0.2,    0.5,    0.4,    0.4,    0.6,    0.8,    1.9,    2.4,    1.0,    0.6,    0.4,   -0.7,    0.0,    2.6,    3.5,    3.2,    3.0,    4.6,    5.4,    3.6,    2.8,    2.8,    3.0,    2.6,    2.6
2007/07/23 05:00,   -3.1,   -2.8,   -2.2,   -1.2,    0.1,    0.3,    0.4,    0.3,    1.2,    1.5,    2.0,    1.1,    1.2,    2.8,    3.1,    2.9,    3.5,    3.0,    3.4,    5.4,    7.0,    5.4,    5.5,    5.1,    4.6,    5.0,    5.0,    4.7,    4.8,    4.8
2007/07/23 05:10,   -3.2,   -3.0,   -2.9,   -2.2,   -1.3,   -1.0,   -0.3,    0.4,    1.0,    0.5,    0.2,    0.6,   -0.1,   -0.1,    0.7,    1.0,    0.6,    0.2,    0.5,    2.1,    3.8,    5.8,  999.0,    6.9,    4.9,    5.2,    4.7,    4.4,    5.1,    5.3
2007/07/23 05:20,   -3.4,   -3.1,   -2.3,   -1.5,   -1.0,   -0.2,    0.2,    0.6,    0.9,    1.1,    1.4,    1.8,    1.9,    2.3,    2.3,    3.6,    4.7,    4.5,    4.4,    4.9,    5.5,    5.4,    6.2,    6.0,    5.5,    5.6,    5.2,    5.0,    4.7,    4.5
2007/07/23 05:30,   -2.6,   -1.5,   -0.9,   -0.4,    0.1,    0.6,    0.6,    0.7,    0.5,    0.3,    0.9,    2.5,    3.9,    5.4,    4.4,    3.2,    3.2,    3.8,    4.7,    5.0,    4.6,    5.2,    5.9,  999.0,    2.3,  999.0,    5.6,    5.9,    6.1,    5.3
2007/07/23 05:40,   -1.4,   -0.9,   -1.6,   -1.4,   -1.1,   -1.4,   -1.4,   -1.2,   -0.8,   -0.6,   -0.4,   -0.2,    0.8,    1.0,    1.4,    2.1,    2.6,    4.1,    4.3,    3.6,    3.6,    2.9,    3.5,    0.6,    5.1,    4.0,    4.2,    4.5,    4.8,    4.5
2007/07/23 05:50,   -2.6,   -1.7,   -1.8,   -2.2,   -2.9,   -2.9,   -3.0,   -2.9,   -2.4,   -1.6,   -0.7,    0.9,    1.3,    1.6,    2.1,    1.9,    2.3,    2.7,    3.2,    3.8,    4.5,    3.5,  999.0,    4.2,    3.8,    3.9,    4.4,    4.2,    4.6,    4.8
2007/07/23 06:00,   -2.1,   -2.3,   -2.2,   -1.7,   -1.7,   -1.8,   -1.0,   -0.7,   -0.7,    0.1,    0.2,   -0.2,    0.7,    2.1,    3.0,    3.9,    4.6,    4.3,    4.5,    5.0,    4.0,    2.9,  999.0,    2.4,    3.0,    4.5,    5.4,    5.9,    5.7,    4.9
2007/07/23 06:10,   -2.6,   -1.6,   -1.8,   -2.0,   -1.7,   -1.3,   -0.9,   -0.3,    0.9,    1.5,    2.4,    3.1,    4.1,    5.5,    5.6,    6.3,    6.2,    5.4,    4.5,    4.2,    2.9,  999.0,  999.0,    4.5,    4.4,    4.4,    4.6,    5.0,    5.7,    5.9
2007/07/23 06:20,   -1.8,   -0.6,   -0.6,    0.2,   -0.2,   -0.7,   -0.6,   -0.3,   -0.0,   -0.3,   -0.1,    0.8,    1.3,    1.5,    2.7,    4.2,    4.2,    2.9,    2.5,    3.7,    6.7,  999.0,  999.0,  999.0,  999.0,  999.0,  999.0,  999.0,  999.0,  999.0
2007/07/23 06:30,   -1.9,   -1.4,   -0.8,   -0.6,   -1.1,   -1.5,   -1.5,   -1.2,   -0.9,   -1.6,   -0.7,   -0.3,    0.6,    1.3,    2.1,    2.2,    2.9,    2.9,    1.9,    3.1,    4.9,  999.0,  999.0,    5.8,    5.1,    4.7,    4.3,    4.8,    5.2,    5.1
2007/07/23 06:40,   -1.9,   -0.7,   -0.0,   -0.3,   -1.2,   -1.1,   -1.0,   -1.1,   -0.0,    0.3,    1.0,    1.4,    2.2,    2.0,    2.4,    3.1,    3.7,    3.6,    3.7,    4.2,    5.7,    6.5,  999.0,    5.7,    5.9,    6.1,    5.1,    4.8,    5.2,    4.8
2007/07/23 06:50,   -2.1,   -1.0,   -1.0,   -1.2,   -1.7,   -1.4,   -0.8,   -0.4,   -0.1,   -0.4,   -0.7,    0.7,    1.7,    2.6,    3.6,    3.4,    3.7,    3.3,    3.5,    3.4,    4.4,    5.3,    4.6,  999.0,    3.7,    4.1,    3.5,    3.6,    4.3,    4.7
2007/07/23 07:00,   -0.8,   -0.6,   -0.9,   -1.4,   -1.3,   -1.2,   -1.3,   -1.0,   -0.5,    0.8,    0.7,    1.3,    1.7,    1.7,    1.1,    1.3,    1.6,    1.3,    1.0,    2.8,    3.2,    1.4,  999.0,    7.5,    8.0,    7.0,    5.1,    4.9,    4.5,    4.7
2007/07/23 07:10,   -1.9,   -0.6,   -0.4,   -0.5,   -1.0,   -1.3,   -1.1,   -1.0,   -0.5,    0.8,    1.6,    1.4,    3.3,    3.8,    2.3,    2.4,    3.4,    2.2,    0.5,    1.6,    3.4,    2.7,    1.0,    2.1,    3.2,    3.2,    2.9,    2.7,    2.7,    2.7
2007/07/23 07:20,   -2.6,   -1.8,   -1.4,   -1.3,   -1.5,   -1.6,   -1.8,   -1.3,   -0.8,   -0.3,    1.7,    3.0,    2.6,    3.3,    3.0,    1.6,    1.0,    0.8,   -1.2,   -0.2,    2.0,    2.1,    1.9,    3.6,    3.3,    3.8,    3.7,    3.7,    4.4,    4.3
2007/07/23 07:30,   -1.3,   -0.8,   -0.3,   -1.0,   -2.0,   -1.4,   -0.9,   -1.4,   -0.7,   -0.6,   -0.5,    1.1,    2.0,    2.3,    2.4,    1.9,    1.3,    1.8,    2.4,    3.0,    3.7,    4.2,    4.2,    4.4,    4.6,    4.8,    4.6,    5.1,    5.1,    4.8
2007/07/23 07:40,   -0.0,    0.2,    0.0,   -0.3,   -1.3,   -1.0,   -0.9,   -1.1,   -0.7,   -0.4,    0.3,    0.5,    0.9,    1.8,    1.8,    2.5,    2.3,    2.7,    2.3,    2.4,    3.0,    3.5,    4.3,    5.1,    4.9,    4.6,    4.6,    4.6,    4.7,    4.5
2007/07/23 07:50,    0.7,    0.2,   -0.4,   -0.6,   -0.5,   -1.0,   -0.4,   -0.3,   -0.1,    0.3,    0.4,    1.5,    1.9,    2.7,    3.1,    3.2,    3.2,    4.0,    3.8,    3.0,    2.4,    3.0,    4.0,    5.0,    5.2,    4.7,    4.5,    4.3,    3.9,    3.8
2007/07/23 08:00,    1.0,    0.4,   -0.7,   -0.5,   -0.2,   -0.6,   -0.2,   -0.1,    0.2,    0.4,    1.0,    1.2,    1.7,    2.0,    1.0,    2.1,    2.7,    3.5,    3.9,    2.9,    2.1,    2.9,    2.4,    3.2,    3.8,    3.4,    3.7,    4.1,    3.6,    3.5
2007/07/23 08:10,    0.7,    0.2,   -0.7,   -0.5,   -0.8,   -1.2,   -0.6,   -0.3,    0.0,    0.8,    1.7,    1.7,    2.1,    2.7,    2.6,    2.8,    3.1,    2.9,    2.6,    2.8,    2.6,    1.9,    1.9,    2.0,    2.3,    2.5,    2.8,    3.1,    3.5,    3.0
2007/07/23 08:20,    1.3,    0.9,   -0.4,   -0.6,   -1.0,   -0.6,    0.5,    1.2,    0.5,   -0.0,    0.8,    1.5,    2.3,    2.6,    2.9,    3.4,    3.5,    3.6,    2.7,    2.3,    1.9,    1.8,    0.9,    1.7,    2.1,    2.0,    1.9,    2.0,    2.5,    2.7
2007/07/23 08:30,    1.2,    0.9,    0.0,   -0.7,   -0.9,   -0.5,   -0.4,    0.4,    0.4,   -0.0,    0.1,    1.2,    1.6,    2.0,    2.1,    2.9,    2.6,    3.2,    3.0,    1.9,    2.2,    2.0,    2.3,    2.1,    1.9,    2.2,    2.0,    2.2,    2.4,    2.5
2007/07/23 08:40,    0.4,    0.1,   -0.4,   -0.7,   -0.2,   -0.1,   -0.3,    1.0,    2.0,    2.1,    2.2,    2.7,    2.4,    2.0,    2.8,    1.8,    2.2,    2.4,    2.6,    2.9,    2.4,    1.9,    3.1,    2.7,    2.2,    2.1,    2.1,    2.4,    2.1,    1.7
2007/07/23 08:50,   -0.5,   -0.8,   -1.2,   -0.0,    1.1,    0.4,   -0.2,    1.4,    2.3,    1.6,    2.0,    3.5,    2.4,    1.7,    2.4,    2.4,    2.0,    2.1,    2.9,    3.7,    4.0,    0.8,   -1.7,    2.5,    2.7,    1.1,  999.0,    1.9,    2.8,  999.0
2007/07/23 09:00,   -1.1,  999.0,   -1.1,  999.0,  999.0,   -0.3,    1.5,    0.2,    0.2,    0.5,    1.6,    1.9,    1.9,    1.8,    3.6,    3.6,    2.6,    2.5,    2.4,    2.6,    3.4,    2.4,   -0.1,    2.4,    3.1,  999.0,  999.0,  999.0,  999.0,  999.0
2007/07/23 09:10,   -1.5,   -2.1,   -2.1,   -0.9,   -1.5,    0.6,    1.4,    0.6,    1.4,    2.2,    3.3,    2.8,    2.4,    2.7,    3.0,    3.4,    2.5,    2.6,    2.5,    2.6,    2.7,    1.8,    1.5,    2.2,   -2.2,  999.0,  999.0,  999.0,  999.0,  999.0
2007/07/23 09:20,   -0.5,   -0.8,   -1.7,    0.0,   -0.7,   -1.1,  999.0,  999.0,    2.2,    1.7,    3.1,    3.6,    3.1,    3.1,    3.9,    4.0,    3.8,    3.7,    3.2,    2.4,    2.0,    2.3,    1.5,    2.0,  999.0,  999.0,  999.0,  999.0,  999.0,  999.0
2007/07/23 09:30,   -1.6,   -1.0,    2.8,  999.0,    0.3,    1.8,  999.0,  999.0,  999.0,    2.5,    3.0,    2.8,    3.1,    3.2,    3.5,    3.5,    3.5,    3.8,    2.8,    2.6,  999.0,    1.7,  999.0,  999.0,  999.0,  999.0,  999.0,  999.0,  999.0,  999.0
2007/07/23 09:40,   -1.6,  999.0,   -1.6,  999.0,    0.1,    0.3,  999.0,    2.0,    2.1,  999.0,  999.0,    6.3,    3.0,    3.3,    5.8,  999.0,  999.0,    2.8,  999.0,    3.0,    2.1,  999.0,  999.0,  999.0,  999.0,  999.0,  999.0,  999.0,  999.0,  999.0
2007/07/23 09:50,   -1.1,  999.0,  999.0,  999.0,   -0.8,    3.3,    2.5,    1.8,  999.0,  999.0,  999.0,  999.0,    4.3,  999.0,  999.0,  999.0,  999.0,  999.0,  999.0,  999.0,  999.0,  999.0,  999.0,  999.0,  999.0,  999.0,  999.0,  999.0,    2.1,  999.0
2007/07/23 10:00,   -1.4,  999.0,  999.0,  999.0,    0.7,    1.6,    2.0,  999.0,    4.0,  999.0,  999.0,    1.6,  999.0,    2.5,  999.0,  999.0,  999.0,  999.0,  999.0,  999.0,  999.0,  999.0,  999.0,  999.0,  999.0,  999.0,  999.0,    0.2,  999.0,  999.0
2007/07/23 10:10,   -1.6,   -0.7,  999.0,    1.8,    1.0,  999.0,    1.8,    1.8,    1.6,    1.8,  999.0,    2.4,    2.6,    1.9,    1.6,    2.4,    2.1,  999.0,  999.0,  999.0,  999.0,  999.0,  999.0,  999.0,    2.0,  999.0,  999.0,    0.1,    0.3,  999.0
2007/07/23 10:20,   -2.7,   -0.7,  999.0,    1.7,    2.8,    1.0,    1.2,    1.6,    1.7,    1.9,    2.4,    2.2,    4.4,  999.0,  999.0,  999.0,  999.0,  999.0,  999.0,  999.0,  999.0,  999.0,  999.0,    1.0,    0.3,    0.2,    0.2,   -0.1,    1.4,    2.6
2007/07/23 10:30,   -2.0,   -3.6,   -2.4,   -0.5,    1.6,    3.1,    1.5,    0.8,    2.1,    2.9,    3.8,    3.1,    3.3,  999.0,  999.0,  999.0,  999.0,  999.0,  999.0,  999.0,  999.0,  999.0,  999.0,  999.0,  999.0,  999.0,  999.0,  999.0,  999.0,  999.0
2007/07/23 10:40,  999.0,   -2.7,  999.0,    1.5,    1.4,    3.3,    3.2,    3.7,    2.2,    2.5,    4.2,    3.0,    2.7,  999.0,  999.0,  999.0,  999.0,  999.0,  999.0,  999.0,  999.0,  999.0,  999.0,  999.0,  999.0,  999.0,  999.0,  999.0,  999.0,  999.0
2007/07/23 10:50,   -1.5,   -1.5,    0.5,    0.5,    0.9,    3.2,    3.4,    3.3,    1.7,    2.4,    1.6,    3.9,    4.0,    4.2,  999.0,  999.0,  999.0,    3.4,  999.0,  999.0,  999.0,  999.0,  999.0,  999.0,  999.0,  999.0,  999.0,  999.0,  999.0,  999.0
2007/07/23 11:00,   -1.7,   -0.2,    1.0,    1.3,    2.2,    2.2,    2.0,    2.9,    1.8,    2.4,    3.9,  999.0,    2.0,    3.0,    2.2,  999.0,  999.0,  999.0,  999.0,  999.0,  999.0,  999.0,  999.0,  999.0,  999.0,  999.0,  999.0,  999.0,  999.0,  999.0
2007/07/23 11:10,   -1.9,   -0.0,    3.0,    1.8,    3.0,    4.1,    2.4,    1.6,    1.7,    2.1,    3.3,    4.0,    4.0,  999.0,  999.0,  999.0,  999.0,  999.0,  999.0,  999.0,  999.0,  999.0,  999.0,  999.0,  999.0,  999.0,  999.0,  999.0,  999.0,  999.0
2007/07/23 11:20,   -2.2,   -2.0,    1.0,    0.6,    0.1,    2.6,    2.1,    1.3,    2.1,    3.4,    4.9,    5.4,    5.9,    6.1,    5.9,    4.3,    4.4,  999.0,  999.0,  999.0,  999.0,  999.0,  999.0,  999.0,  999.0,  999.0,  999.0,  999.0,  999.0,  999.0
2007/07/23 11:30,   -1.3,   -1.9,    0.3,    1.6,    1.6,    3.7,    2.5,    1.8,    2.8,    3.9,    5.5,  999.0,  999.0,    5.5,  999.0,    5.7,    5.2,  999.0,  999.0,  999.0,  999.0,  999.0,  999.0,  999.0,  999.0,  999.0,  999.0,  999.0,  999.0,  999.0
2007/07/23 11:40,   -0.5,   -1.4,  999.0,    1.2,    1.9,    4.0,    1.5,    1.6,  999.0,    2.6,    4.6,  999.0,  999.0,    5.7,    3.5,  999.0,  999.0,  999.0,  999.0,  999.0,  999.0,  999.0,  999.0,  999.0,  999.0,  999.0,  999.0,  999.0,  999.0,  999.0
2007/07/23 11:50,   -0.6,   -1.5,   -0.5,    1.7,    0.2,    1.9,    2.8,    2.3,    1.3,    2.6,    4.0,  999.0,  999.0,  999.0,  999.0,  999.0,  999.0,  999.0,  999.0,  999.0,  999.0,  999.0,  999.0,  999.0,  999.0,  999.0,  999.0,  999.0,  999.0,  999.0
2007/07/23 12:00,    0.0,   -0.5,    1.7,    2.6,  999.0,    2.2,    4.5,  999.0,    1.8,    2.5,  999.0,  999.0,  999.0,  999.0,  999.0,  999.0,  999.0,  999.0,  999.0,  999.0,  999.0,  999.0,  999.0,  999.0,  999.0,  999.0,  999.0,  999.0,  999.0,  999.0
2007/07/23 12:10,  999.0,    1.0,    2.1,    1.9,  999.0,    2.0,  999.0,    1.9,    1.6,    2.5,  999.0,  999.0,  999.0,  999.0,  999.0,  999.0,  999.0,  999.0,  999.0,  999.0,  999.0,  999.0,  999.0,  999.0,  999.0,  999.0,  999.0,  999.0,  999.0,  999.0
2007/07/23 12:20,   -1.2,    1.5,    2.9,    4.1,  999.0,    0.2,  999.0,    2.5,    1.9,    1.4,    4.4,  999.0,  999.0,  999.0,  999.0,    5.0,  999.0,  999.0,  999.0,  999.0,  999.0,  999.0,  999.0,  999.0,  999.0,  999.0,  999.0,  999.0,  999.0,  999.0
2007/07/23 12:30,   -2.0,    2.1,    2.1,    2.8,    2.0,    0.3,  999.0,    1.1,    1.8,    2.1,    4.2,  999.0,    2.0,    3.9,  999.0,    4.3,    3.2,  999.0,  999.0,  999.0,  999.0,  999.0,  999.0,  999.0,  999.0,  999.0,  999.0,  999.0,  999.0,  999.0
2007/07/23 12:40,   -1.4,    0.4,    2.6,    1.9,    1.8,  999.0,    1.9,    2.8,  999.0,    2.9,    1.1,  999.0,  999.0,    2.2,    2.9,  999.0,    4.1,  999.0,  999.0,  999.0,  999.0,  999.0,  999.0,  999.0,  999.0,  999.0,  999.0,  999.0,  999.0,  999.0
2007/07/23 12:50,   -1.4,   -3.7,    1.5,    2.0,    1.4,  999.0,  999.0,  999.0,  999.0,    2.6,    3.1,    3.2,    3.3,  999.0,    4.0,  999.0,  999.0,  999.0,  999.0,  999.0,  999.0,  999.0,  999.0,  999.0,  999.0,  999.0,  999.0,  999.0,  999.0,  999.0
2007/07/23 13:00,   -1.6,    1.3,    0.4,    2.3,    1.4,    0.5,    0.3,    0.5,    1.9,    2.9,    3.3,    3.7,    4.1,    4.3,  999.0,    2.3,  999.0,  999.0,  999.0,  999.0,  999.0,  999.0,  999.0,  999.0,    3.1,  999.0,  999.0,  999.0,  999.0,  999.0
2007/07/23 13:10,   -3.4,    0.2,    2.0,    1.4,    1.3,  999.0,   -2.1,    0.9,    2.7,    3.4,    2.8,    2.9,    3.0,    3.2,    3.2,    5.1,  999.0,  999.0,  999.0,  999.0,  999.0,  999.0,  999.0,  999.0,  999.0,  999.0,  999.0,  999.0,  999.0,  999.0
2007/07/23 13:20,   -0.7,   -0.8,    1.1,    1.7,    0.6,    1.2,    2.0,    0.8,    1.4,    2.0,    3.2,    2.8,    2.9,    3.0,    2.8,    4.4,  999.0,  999.0,  999.0,  999.0,  999.0,  999.0,  999.0,  999.0,  999.0,  999.0,  999.0,  999.0,  999.0,    1.2
2007/07/23 13:30,   -1.4,   -1.0,    1.3,    1.2,    2.0,    1.4,    1.0,    3.3,    2.8,    1.8,    2.2,    2.9,    3.1,    2.6,  999.0,  999.0,  999.0,  999.0,  999.0,  999.0,  999.0,  999.0,  999.0,    2.5,  999.0,    2.0,    2.3,    2.3,    2.0,    2.2
2007/07/23 13:40,   -0.9,   -1.3,    2.0,    3.5,    1.3,    2.0,    2.3,    1.6,  999.0,    1.6,    2.4,    2.3,   -3.6,  999.0,  999.0,  999.0,  999.0,   -0.2,   -1.8,   -1.4,  999.0,  999.0,  999.0,  999.0,    1.9,    1.8,    1.8,    2.2,    2.0,    2.0
2007/07/23 13:50,   -1.3,   -0.7,    2.7,    2.0,    1.6,    1.1,    2.8,    0.5,   -1.1,    1.6,    2.0,    2.2,    3.4,    3.4,   -0.4,    2.3,    2.2,    2.2,    1.7,    0.6,    0.6,    1.1,    1.0,    2.2,    2.7,    2.7,    2.3,    2.4,    2.4,    2.3
2007/07/23 14:00,   -1.9,   -1.8,   -1.8,    0.6,    0.6,    0.4,    1.7,   -1.3,   -0.1,    0.8,    1.4,   -8.0,    2.8,    3.6,    3.3,    2.8,    3.4,    2.9,    2.3,    1.0,    1.0,    1.4,    2.4,    2.1,    2.6,  999.0,  999.0,  999.0,  999.0,  999.0
2007/07/23 14:10,   -2.8,   -2.9,    2.0,  999.0,    4.8,    2.1,    2.0,    0.1,   -2.4,   -0.5,    3.1,    1.1,    4.4,    4.2,    3.6,    3.4,    2.7,    2.6,    1.4,    0.7,   -0.6,    0.8,    1.7,    1.8,    2.3,  999.0,  999.0,  999.0,  999.0,  999.0
2007/07/23 14:20,   -0.2,    0.2,    3.2,    2.4,   -1.1,   -0.0,    0.2,    3.4,    2.0,    1.3,    1.3,    3.5,    4.0,    5.1,    7.2,    2.5,    1.8,    2.2,  999.0,  999.0,  999.0,  999.0,  999.0,  999.0,  999.0,  999.0,  999.0,  999.0,  999.0,  999.0
2007/07/23 14:30,   -1.3,   -0.3,    0.2,    0.7,   -0.5,    1.2,    1.1,    1.7,    1.5,    3.3,    4.9,    3.9,    3.8,    2.0,    3.8,  999.0,  999.0,  999.0,  999.0,  999.0,  999.0,  999.0,  999.0,  999.0,  999.0,  999.0,  999.0,  999.0,  999.0,  999.0
2007/07/23 14:40,   -1.8,   -1.1,    1.2,    2.2,  999.0,    2.4,    2.2,    3.5,    1.6,    3.4,    3.0,    3.5,    3.4,    3.4,  999.0,  999.0,  999.0,  999.0,  999.0,  999.0,  999.0,  999.0,  999.0,  999.0,  999.0,  999.0,  999.0,  999.0,  999.0,  999.0
2007/07/23 14:50,   -0.8,   -2.7,    1.4,    1.1,    2.2,    2.5,    3.2,    4.1,    2.8,  999.0,  999.0,    4.2,    3.4,    3.6,    3.3,  999.0,  999.0,  999.0,  999.0,  999.0,  999.0,  999.0,  999.0,  999.0,  999.0,  999.0,  999.0,  999.0,  999.0,  999.0
2007/07/23 15:00,  999.0,  999.0,  999.0,  999.0,  999.0,  999.0,    3.4,  999.0,    1.8,    3.6,    2.9,    0.0,    3.6,  999.0,    5.4,    0.2,  999.0,  999.0,  999.0,  999.0,  999.0,  999.0,  999.0,  999.0,  999.0,  999.0,  999.0,  999.0,  999.0,  999.0
2007/07/23 15:10,   -0.9,    0.2,  999.0,    0.8,    1.9,    4.1,    3.2,    0.1,    2.7,    1.7,    6.2,  999.0,   -0.3,    2.2,  999.0,  999.0,    0.1,  999.0,  999.0,  999.0,  999.0,  999.0,  999.0,  999.0,  999.0,  999.0,  999.0,  999.0,  999.0,  999.0
2007/07/23 15:20,   -1.3,    0.2,    1.4,    1.8,    1.8,    1.0,    1.5,    3.2,    2.0,    2.6,    2.9,    5.9,    5.5,    3.0,    2.9,    2.0,    2.4,  999.0,  999.0,  999.0,  999.0,  999.0,  999.0,  999.0,  999.0,  999.0,  999.0,  999.0,  999.0,    0.6
2007/07/23 15:30,   -1.8,   -0.9,    0.9,    1.4,    1.3,    0.6,    2.9,    2.3,    2.9,    3.4,    1.3,    1.4,    3.2,    3.4,    2.4,  999.0,  999.0,  999.0,  999.0,  999.0,  999.0,  999.0,  999.0,  999.0,  999.0,  999.0,  999.0,  999.0,  999.0,  999.0
2007/07/23 15:40,   -1.9,   -0.7,    2.6,    2.8,    1.3,   -0.5,    2.6,    2.3,    2.5,    2.6,    3.5,    4.2,    5.0,    5.1,    4.6,    7.2,  999.0,  999.0,  999.0,  999.0,  999.0,  999.0,  999.0,    2.5,  999.0,  999.0,  999.0,  999.0,  999.0,  999.0
2007/07/23 15:50,   -0.9,   -0.3,    1.2,    0.4,    1.9,  999.0,   -2.2,    2.5,    3.2,    2.9,    4.5,    5.1,    4.7,    5.3,    6.4,    3.1,  999.0,  999.0,  999.0,  999.0,  999.0,  999.0,  999.0,  999.0,  999.0,  999.0,  999.0,  999.0,  999.0,   -0.5
2007/07/23 16:00,   -0.2,   -0.4,    0.5,    0.8,    2.1,    1.7,  999.0,    2.4,  999.0,    3.6,    0.6,    3.8,    4.2,    4.2,    3.4,    3.0,  999.0,  999.0,  999.0,  999.0,  999.0,  999.0,  999.0,  999.0,    0.3,  999.0,  999.0,  999.0,  999.0,   -0.9
2007/07/23 16:10,   -1.6,   -0.4,    1.0,    0.8,    1.8,    2.6,    3.2,    4.2,  999.0,    1.7,  999.0,    2.9,    3.9,    3.0,    3.6,  999.0,  999.0,  999.0,  999.0,  999.0,  999.0,  999.0,  999.0,  999.0,  999.0,  999.0,  999.0,  999.0,  999.0,    0.5
2007/07/23 16:20,   -0.6,    0.7,    1.1,    1.8,    1.4,    2.9,   -0.1,    4.1,    5.0,    4.3,    3.7,    4.6,    3.8,    3.3,    4.1,    2.0,    1.8,  999.0,  999.0,    3.0,  999.0,  999.0,  999.0,  999.0,    0.1,  999.0,  999.0,  999.0,  999.0,  999.0
2007/07/23 16:30,   -1.1,    1.8,    0.6,    0.8,   -2.1,   -0.2,    2.6,    2.2,    0.6,    1.4,   -2.1,    1.1,   -3.1,    1.6,    5.6,    3.8,    5.5,  999.0,    0.5,   -0.8,  999.0,  999.0,  999.0,    0.7,    0.7,  999.0,  999.0,  999.0,  999.0,    1.3
2007/07/23 16:40,  999.0,  999.0,  999.0,  999.0,  999.0,  999.0,   -5.9,  999.0,  999.0,   -5.3,    2.5,   -1.2,    0.6,   -2.1,    3.0,    0.9,    5.5,    6.6,  999.0,    2.5,  999.0,  999.0,  999.0,  999.0,  999.0,  999.0,  999.0,  999.0,  999.0,  999.0
2007/07/23 16:50,    0.1,   10.2,   -1.5,    3.3,    2.8,    1.9,    3.4,    5.2,   -0.3,   -0.5,   -2.5,    1.6,   -3.9,    2.0,    2.8,   -0.9,    2.2,    2.2,    2.2,    0.5,  999.0,  999.0,  999.0,  999.0,  999.0,  999.0,  999.0,  999.0,  999.0,  999.0
2007/07/23 17:00,   -3.6,    0.7,    0.9,    1.6,    1.2,    2.0,    3.0,    1.1,    0.8,    1.7,    2.3,    3.9,    4.6,    5.2,    3.2,    3.3,    4.3,  999.0,  999.0,  999.0,  999.0,  999.0,  999.0,  999.0,  999.0,  999.0,  999.0,  999.0,  999.0,  999.0
2007/07/23 17:10,   -3.6,   -2.0,   -0.2,    1.8,    1.4,    3.4,    3.1,    3.3,    2.8,  999.0,  999.0,    4.5,    5.0,    4.1,    3.5,    3.8,    2.7,  999.0,  999.0,  999.0,  999.0,  999.0,  999.0,  999.0,  999.0,  999.0,  999.0,  999.0,  999.0,  999.0
2007/07/23 17:20,   -3.6,   -1.8,   -1.2,    0.5,    1.8,    1.1,    2.6,    2.8,    1.9,    1.9,  999.0,    4.9,    4.8,    4.3,    2.8,    3.3,    4.0,  999.0,  999.0,   -3.0,  999.0,  999.0,  999.0,  999.0,  999.0,  999.0,  999.0,  999.0,  999.0,  999.0
2007/07/23 17:30,   -3.1,   -1.6,   -1.0,    0.8,    1.9,    1.2,    5.5,    4.2,  999.0,    2.5,    4.8,    5.2,    4.4,    4.6,    4.2,    3.5,    3.4,  999.0,  999.0,   -0.2,  999.0,  999.0,  999.0,   -0.9,  999.0,  999.0,  999.0,  999.0,  999.0,  999.0
2007/07/23 17:40,   -0.1,   -1.9,  999.0,  999.0,  999.0,  999.0,  999.0,    5.5,    1.9,    6.6,    4.1,    3.3,  999.0,    5.4,    3.1,    1.9,    0.9,  999.0,  999.0,  999.0,  999.0,  999.0,  999.0,  999.0,    0.4,  999.0,  999.0,  999.0,  999.0,  999.0
2007/07/23 17:50,   -3.8,   -3.4,   -2.8,   -1.9,    1.6,    1.9,    2.6,    3.9,    1.1,    3.4,    5.3,    5.7,  999.0,    3.5,    3.3,    1.8,  999.0,  999.0,  999.0,  999.0,  999.0,  999.0,  999.0,  999.0,  999.0,  999.0,  999.0,  999.0,  999.0,  999.0
2007/07/23 18:00,   -2.7,   -4.2,   -1.4,   -2.2,    1.9,    4.4,    3.1,    3.1,    3.2,    3.4,    3.3,    3.9,  999.0,    2.4,    3.1,  999.0,    2.5,  999.0,  999.0,  999.0,  999.0,  999.0,  999.0,  999.0,   -1.3,  999.0,  999.0,  999.0,  999.0,  999.0
2007/07/23 18:10,   -2.9,   -3.2,   -2.3,   -1.7,   -1.3,    0.9,    2.0,    3.0,    4.8,    3.4,    2.7,    2.7,    4.6,    3.1,    2.1,    0.7,    3.6,  999.0,  999.0,  999.0,  999.0,  999.0,  999.0,  999.0,  999.0,  999.0,  999.0,  999.0,  999.0,  999.0
2007/07/23 18:20,   -3.1,   -1.8,   -3.2,   -1.4,    0.8,   -0.2,   -0.1,    0.5,    3.2,    3.6,    2.6,  999.0,    2.1,    1.8,    2.9,    2.2,  999.0,  999.0,  999.0,  999.0,  999.0,  999.0,  999.0,  999.0,   -0.6,  999.0,  999.0,  999.0,  999.0,  999.0
2007/07/23 18:30,   -2.4,   -1.7,    0.1,   -0.9,   -0.7,    1.9,    0.9,    1.3,    4.6,    5.5,  999.0,  999.0,  999.0,  999.0,    2.1,    3.9,  999.0,  999.0,  999.0,  999.0,  999.0,  999.0,  999.0,    0.8,  999.0,  999.0,  999.0,  999.0,  999.0,  999.0
2007/07/23 18:40,   -1.3,   -0.7,    0.7,   -1.3,   -1.8,    1.2,    1.2,    1.5,    2.6,    2.8,  999.0,    3.8,    3.8,  999.0,    1.9,  999.0,  999.0,  999.0,  999.0,  999.0,  999.0,  999.0,  999.0,  999.0,  999.0,  999.0,  999.0,  999.0,  999.0,  999.0
2007/07/23 18:50,  999.0,  999.0,   -7.7,   -5.3,    1.3,   -0.8,    0.6,   -1.7,  999.0,   -1.0,    5.4,    3.7,  999.0,  999.0,  999.0,  999.0,  999.0,  999.0,  999.0,  999.0,  999.0,  999.0,  999.0,  999.0,  999.0,  999.0,  999.0,  999.0,  999.0,  999.0
2007/07/23 19:00,   -3.1,   -2.3,   -1.7,   -0.6,  999.0,  999.0,   -0.1,    4.5,    1.9,    2.4,    3.7,    5.9,  999.0,  999.0,    1.6,  999.0,    2.9,  999.0,  999.0,  999.0,  999.0,  999.0,  999.0,  999.0,  999.0,  999.0,  999.0,  999.0,  999.0,  999.0
2007/07/23 19:10,   -2.5,   -3.8,   -1.7,   -2.3,    3.3,    2.9,   -7.3,    2.7,    5.5,    4.3,    6.9,  999.0,    2.8,    1.7,    2.0,    1.5,    2.9,  999.0,  999.0,  999.0,  999.0,  999.0,  999.0,   -0.9,    1.7,  999.0,  999.0,  999.0,  999.0,  999.0
2007/07/23 19:20,   -0.9,   -2.0,  999.0,  999.0,  999.0,   -1.1,    3.8,    4.0,  999.0,  999.0,    5.6,    7.5,  999.0,    1.7,  999.0,  999.0,  999.0,  999.0,  999.0,  999.0,  999.0,  999.0,  999.0,  999.0,  999.0,  999.0,  999.0,  999.0,  999.0,  999.0
2007/07/23 19:30,   -2.3,   -1.4,   -0.2,   -4.3,    0.1,  999.0,    5.2,    2.0,    4.1,    8.6,    2.1,    2.3,  999.0,  999.0,    1.1,    0.8,    4.2,  999.0,  999.0,  999.0,  999.0,  999.0,  999.0,  999.0,  999.0,  999.0,  999.0,  999.0,  999.0,  999.0
2007/07/23 19:40,  999.0,    6.1,    7.9,    3.0,    1.8,    0.4,    1.0,    3.0,    3.7,    4.4,    6.1,    4.4,    5.0,    5.6,    5.8,    5.4,    4.5,    4.2,    3.6,    3.3,    0.6,    0.3,    1.5,   -0.3,   -0.4,   -0.0,    0.3,    0.3,    0.7,   -0.8
2007/07/23 19:50,    5.6,   -1.1,  999.0,   -1.4,   -0.3,   -1.5,   -0.3,    1.5,    2.3,    2.7,    3.0,    2.1,    2.8,    3.7,    5.8,    4.7,    4.6,    4.8,    4.7,    3.9,    2.9,    2.6,    2.1,    0.1,   -0.3,   -0.6,   -0.9,   -0.3,   -1.3,   -1.7
2007/07/23 20:00,   -1.6,   -0.7,   -0.8,   -2.5,   -2.4,   -1.5,   -1.1,    0.5,    1.9,    3.1,    3.1,    3.5,    4.2,    4.6,    5.2,    4.5,    4.2,    3.9,    3.6,    2.1,    1.3,    0.7,    0.3,   -0.1,   -0.2,   -0.1,   -0.8,   -0.3,   -0.2,   -0.8
2007/07/23 20:10,   -2.3,   -1.3,   -1.1,   -1.2,   -2.0,   -2.3,   -0.8,   -1.0,    1.1,    2.1,    1.3,    3.2,    3.6,    3.1,    3.6,    3.0,    4.0,    3.7,    2.9,    1.7,    0.7,    0.7,    1.6,    0.3,   -0.4,    0.1,   -0.1,    0.1,    0.3,   -0.6
2007/07/23 20:20,   -2.1,   -1.6,   -1.3,   -1.7,   -1.7,    0.3,   -0.9,    0.6,    2.0,    1.8,    6.6,    8.6,    6.5,    6.1,    6.0,    4.4,    2.6,    3.9,    2.3,    1.9,    2.2,    2.4,    1.2,    0.4,    0.5,    0.5,    0.7,    2.2,  999.0,    2.0
2007/07/23 20:30,   -2.9,   -2.5,   -2.8,   -0.8,   -1.2,   -1.1,   -0.2,    0.7,    2.2,    3.2,    3.5,    3.7,    3.9,    4.7,    3.4,    2.3,    2.4,    2.4,    1.7,    1.6,    0.8,    0.5,  999.0,  999.0,   -0.9,   -0.5,    0.0,    0.7,    1.3,    0.6
2007/07/23 20:40,   -2.6,   -2.0,   -1.8,   -2.2,   -2.4,   -1.7,   -0.8,    0.6,    2.6,    3.0,    3.6,    3.9,    4.4,    5.0,    4.2,    2.9,    2.2,    1.9,    2.3,    1.9,    0.6,   -0.3,  999.0,  999.0,    0.4,    0.7,    0.4,    0.6,    0.8,    0.7
2007/07/23 20:50,   -2.9,   -1.9,   -1.6,   -1.4,   -1.6,   -2.5,   -2.0,    0.8,    1.5,    2.0,    3.8,    3.1,    3.5,    4.0,    3.2,    2.7,    1.6,    0.9,    0.6,   -0.1,   -0.7,    0.1,  999.0,  999.0,    0.4,    0.5,    0.3,    0.6,    0.9,    0.9
2007/07/23 21:00,   -1.4,   -1.6,   -1.5,   -1.9,   -1.3,   -1.1,   -1.3,   -0.2,    1.5,    3.4,    3.8,    3.8,    4.3,    4.4,    3.4,    2.3,    1.2,    1.0,    0.9,   -0.5,   -1.8,   -0.9,  999.0,  999.0,    0.1,    0.1,    0.2,    0.8,    0.8,    1.0
2007/07/23 21:10,   -2.0,   -1.7,   -1.7,   -2.0,   -1.8,   -1.3,   -1.4,   -0.6,    1.2,    3.8,    3.9,    4.6,    5.3,    5.2,    3.3,    2.2,    1.4,    0.6,    0.6,    0.1,   -1.2,   -1.0,   -0.2,  999.0,    0.5,   -0.0,   -0.9,   -1.1,   -0.9,   -0.6
2007/07/23 21:20,   -1.7,   -1.4,   -1.8,   -2.6,   -2.3,   -1.7,   -0.5,    0.5,    1.7,    3.5,    3.6,    3.8,    4.1,    3.9,    1.6,    1.5,    1.3,    0.5,    0.6,   -0.6,   -1.9,   -1.7,   -0.7,    0.5,    0.8,    0.2,   -0.8,   -1.4,   -1.2,   -0.3
2007/07/23 21:30,   -1.6,   -1.8,   -2.3,   -1.4,   -1.7,   -2.1,   -0.2,    0.0,    2.3,    3.5,    3.2,    3.9,    3.8,    3.9,    2.6,    1.7,    1.9,    1.2,    0.5,   -0.3,   -0.9,   -0.6,   -0.6,    0.4,    0.6,    0.7,    0.1,   -0.9,   -1.3,   -1.3
2007/07/23 21:40,   -1.0,   -1.3,   -1.8,   -1.5,   -1.6,   -1.6,   -0.3,    0.5,    2.0,    3.3,    3.9,    4.4,    4.1,    3.5,    2.6,    1.4,    1.4,    1.7,    0.5,   -0.8,    0.4,   -0.4,   -0.8,    1.2,    2.5,    0.4,  999.0,  999.0,  999.0,  999.0
2007/07/23 21:50,  999.0,   -2.1,   -2.0,   -1.5,   -1.7,   -1.5,    3.7,   -0.6,   -1.7,    3.2,    0.7,   -0.2,   -1.9,  999.0,    2.3,    0.2,    0.1,   -1.3,   -1.4,   -1.2,  999.0,  999.0,  999.0,  999.0,  999.0,  999.0,  999.0,  999.0,  999.0,  999.0
2007/07/23 22:00,   -2.3,   -1.1,   -1.9,   -2.0,   -3.6,   -3.7,   -1.8,    0.1,  999.0,  999.0,  999.0,  999.0,  999.0,  999.0,  999.0,   -0.1,  999.0,  999.0,  999.0,  999.0,  999.0,  999.0,  999.0,    0.0,  999.0,    0.9,    0.5,   -0.4,   -0.9,    0.1
2007/07/23 22:10,   -1.2,   -1.4,   -2.2,   -3.0,   -3.7,   -3.0,   -0.8,    1.7,    3.3,    4.2,    4.9,    4.7,    3.8,    2.4,    1.5,    0.6,   -0.4,   -1.7,   -2.6,   -2.9,   -2.4,   -2.6,   -0.8,  999.0,  999.0,    1.2,    1.5,    0.4,   -0.0,    0.2
2007/07/23 22:20,   -2.0,   -3.0,   -2.9,   -3.2,   -3.4,   -3.5,   -1.7,    1.0,    3.1,    3.7,    4.3,    4.3,    4.1,    3.4,    2.5,   -0.1,    0.0,   -0.7,   -1.8,   -1.5,   -1.6,   -0.8,  999.0,  999.0,  999.0,  999.0,  999.0,  999.0,  999.0,  999.0
2007/07/23 22:30,   -2.1,   -3.3,   -4.0,   -3.6,   -3.0,   -3.0,   -0.2,    2.4,    3.9,    4.1,    3.8,    4.1,    4.7,    4.1,    2.5,    1.1,   -0.0,   -1.4,   -1.7,   -0.6,   -0.6,   -1.8,  999.0,  999.0,  999.0,  999.0,  999.0,  999.0,  999.0,  999.0
2007/07/23 22:40,   -2.4,   -3.3,   -3.7,   -3.0,   -3.5,   -2.9,   -0.6,    2.1,    3.1,    3.4,    3.3,    3.8,    3.4,    3.3,    1.8,   -0.2,   -1.3,   -2.5,   -2.3,   -2.7,   -2.0,  999.0,  999.0,  999.0,  999.0,  999.0,  999.0,  999.0,  999.0,  999.0
2007/07/23 22:50,   -1.9,   -3.2,   -3.2,   -2.4,   -3.4,   -3.4,   -0.4,    2.4,    2.9,    3.0,    3.2,    3.8,    3.6,    3.4,    1.7,   -0.1,   -1.1,   -2.0,   -3.0,   -2.8,   -1.9,  999.0,  999.0,  999.0,  999.0,  999.0,  999.0,  999.0,  999.0,  999.0
2007/07/23 23:00,   -1.8,   -2.3,   -2.6,   -2.0,   -2.1,   -3.3,   -0.5,    1.8,    2.9,    3.1,    3.1,    3.5,    3.4,    3.2,    0.8,   -1.1,   -1.1,   -1.3,   -1.5,   -1.5,   -1.5,   -2.0,  999.0,  999.0,  999.0,    0.2,  999.0,  999.0,  999.0,  999.0
2007/07/23 23:10,   -1.8,   -1.6,   -2.6,   -2.4,   -2.2,   -2.9,   -1.3,    1.9,    3.0,    3.6,    3.0,    3.0,    2.6,    1.9,    0.1,   -1.0,   -1.6,   -2.2,   -2.2,   -2.3,   -1.7,   -1.2,   -2.5,  999.0,  999.0,    0.1,    0.0,    0.4,    0.8,    1.7
2007/07/23 23:20,   -2.2,   -1.6,   -2.1,   -2.5,   -2.0,   -2.4,   -1.8,    1.2,    2.4,    2.6,    2.0,    3.2,    2.8,    2.2,    0.3,   -1.0,   -1.1,   -1.3,   -1.9,   -2.4,   -2.9,   -2.1,   -2.2,  999.0,   -0.8,   -0.7,   -0.2,    0.1,    0.4,    1.2
2007/07/23 23:30,   -2.5,   -2.8,   -2.3,   -2.1,   -1.9,   -1.9,   -1.1,    1.2,    2.6,    1.9,    2.5,    2.6,    2.5,    1.3,   -0.1,   -1.0,   -1.1,   -1.1,   -1.5,   -2.5,   -2.8,   -2.5,  999.0,   -3.4,  999.0,   -2.2,   -1.5,   -0.6,   -0.2,    0.1
2007/07/23 23:40,   -2.9,   -2.5,   -2.5,   -2.2,   -1.5,   -1.9,   -1.0,    1.0,    3.2,    3.0,    2.8,    2.9,    2.8,    1.3,   -0.7,   -1.3,   -1.8,   -1.5,   -2.0,   -2.2,   -2.5,   -3.1,  999.0,   -2.7,   -2.5,   -1.8,   -0.8,   -0.7,   -0.8,   -0.6
2007/07/23 23:50,   -3.1,   -2.8,   -2.9,   -2.3,   -1.6,   -1.9,   -1.0,    1.4,    2.9,    2.3,    3.3,    2.8,    2.3,    1.4,    0.1,   -0.9,   -1.1,   -0.7,   -0.9,   -0.9,   -0.9,   -1.0,  999.0,   -3.6,   -3.4,   -2.7,   -1.7,   -1.4,   -1.3,  999.0
